Overview Statistics Trail Chart Weather Telemetry Raw packets
 

This is the latest recevied weather packets stored in our database for station/object KF7SOJ. If no packets are shown the sender has not sent any weather packets the latest 10 day(s).

<< 22 23 24 25 26 27 28 >>
Time Temp. Humidity Pressure Rain* Wind** Luminosity Snow
1788462716 27.78° C 20% 926.6 hPa 0 mm - 839 W/m² -
1788462411 27.22° C 21% 926.7 hPa 0 mm - 842 W/m² -
1788462105 27.22° C 21% 926.6 hPa 0 mm - 842 W/m² -
1788461800 27.22° C 20% 926.7 hPa 0 mm - 839 W/m² -
1788461495 27.22° C 21% 926.7 hPa 0 mm - 837 W/m² -
1788461192 26.67° C 22% 926.7 hPa 0 mm - 836 W/m² -
1788460887 26.67° C 21% 926.6 hPa 0 mm - 834 W/m² -
1788460586 26.67° C 21% 926.8 hPa 0 mm - 832 W/m² -
1788460281 26.67° C 21% 926.9 hPa 0 mm - 827 W/m² -
1788459980 26.67° C 20% 926.9 hPa 0 mm - 822 W/m² -
1788459676 26.67° C 22% 926.9 hPa 0 mm - 816 W/m² -
1788459391 26.67° C 20% 926.9 hPa 0 mm - 812 W/m² -
1788459075 26.67° C 21% 927 hPa 0 mm - 805 W/m² -
1788458770 26.11° C 22% 927.1 hPa 0 mm - 798 W/m² -
1788458465 26.11° C 21% 927 hPa 0 mm - 792 W/m² -
1788458164 26.11° C 21% 927.1 hPa 0 mm - 785 W/m² -
1788457863 26.11° C 21% 927.3 hPa 0 mm - 780 W/m² -
1788457558 26.67° C 21% 927.2 hPa 0 mm - 771 W/m² -
1788457253 26.11° C 22% 927.2 hPa 0 mm - 764 W/m² -
1788456948 26.11° C 22% 927.2 hPa 0 mm - 756 W/m² -
1788456645 26.11° C 21% 927.3 hPa 0 mm - 747 W/m² -
1788456344 25.56° C 21% 927.4 hPa 0 mm - 737 W/m² -
1788456040 25.56° C 22% 927.3 hPa 0 mm - 727 W/m² -
1788455735 25.56° C 21% 927.4 hPa 0 mm - 715 W/m² -
1788455430 25.56° C 22% 927.4 hPa 0 mm - 705 W/m² -

* Rain latest hour (hover to see other rain measurements)
** Current wind speed in m/s (hover to see current wind gust speed)